Time,TemperatureF,DewpointF,PressureIn,WindDirection,WindDirectionDegrees,WindSpeedMPH,WindSpeedGustMPH,Humidity,HourlyPrecipIn,Conditions,Clouds,dailyrainin,SoftwareType,DateUTC
2013-04-03 00:00:00,29.8,19.5,30.29,NW,313,0.0,8.0,65,0.00,,,0.00,Wunderground v.1.15,2013-04-03 04:00:00,
2013-04-03 00:05:00,29.7,19.0,30.29,NW,313,0.0,8.0,64,0.00,,,0.00,Wunderground v.1.15,2013-04-03 04:05:00,
2013-04-03 00:10:00,29.7,19.0,30.29,NW,313,0.0,8.0,64,0.00,,,0.00,Wunderground v.1.15,2013-04-03 04:10:00,
2013-04-03 00:20:00,29.4,20.5,30.29,NW,313,1.0,1.0,69,0.00,,,0.00,Wunderground v.1.15,2013-04-03 04:20:00,
2013-04-03 00:25:00,29.2,21.0,30.29,NW,313,1.0,8.0,71,0.00,,,0.00,Wunderground v.1.15,2013-04-03 04:25:00,
2013-04-03 00:30:00,29.0,20.4,30.29,NW,313,0.0,8.0,70,0.00,,,0.00,Wunderground v.1.15,2013-04-03 04:30:00,
2013-04-03 00:40:00,28.8,19.6,30.30,NW,313,0.0,8.0,68,0.00,,,0.00,Wunderground v.1.15,2013-04-03 04:40:00,
2013-04-03 00:45:00,28.7,19.5,30.30,NW,313,0.0,8.0,68,0.00,,,0.00,Wunderground v.1.15,2013-04-03 04:45:00,
2013-04-03 00:50:00,28.5,20.0,30.30,NW,313,0.0,8.0,70,0.00,,,0.00,Wunderground v.1.15,2013-04-03 04:50:00,
2013-04-03 00:55:00,28.1,20.6,30.30,NW,313,0.0,8.0,73,0.00,,,0.00,Wunderground v.1.15,2013-04-03 04:55:00,
2013-04-03 01:00:00,27.8,20.6,30.30,NW,313,0.0,8.0,74,0.00,,,0.00,Wunderground v.1.15,2013-04-03 05:00:00,
2013-04-03 01:05:00,27.4,20.2,30.30,NW,313,0.0,8.0,74,0.00,,,0.00,Wunderground v.1.15,2013-04-03 05:05:00,
2013-04-03 01:10:00,27.2,20.9,30.30,NW,313,0.0,8.0,77,0.00,,,0.00,Wunderground v.1.15,2013-04-03 05:10:00,
2013-04-03 01:15:00,27.0,21.4,30.30,NW,313,0.0,8.0,79,0.00,,,0.00,Wunderground v.1.15,2013-04-03 05:15:00,
2013-04-03 01:20:00,27.0,21.9,30.30,NW,313,0.0,8.0,81,0.00,,,0.00,Wunderground v.1.15,2013-04-03 05:20:00,
2013-04-03 01:25:00,26.9,22.1,30.30,NW,313,0.0,8.0,82,0.00,,,0.00,Wunderground v.1.15,2013-04-03 05:25:00,
2013-04-03 01:30:00,26.9,21.3,30.30,NW,313,0.0,8.0,79,0.00,,,0.00,Wunderground v.1.15,2013-04-03 05:30:00,
2013-04-03 01:35:00,26.9,20.3,30.30,NW,313,0.0,8.0,76,0.00,,,0.00,Wunderground v.1.15,2013-04-03 05:35:00,
2013-04-03 01:45:00,26.9,20.0,30.31,NW,313,0.0,8.0,75,0.00,,,0.00,Wunderground v.1.15,2013-04-03 05:45:00,
2013-04-03 01:50:00,27.0,20.4,30.31,NW,313,0.0,8.0,76,0.00,,,0.00,Wunderground v.1.15,2013-04-03 05:50:00,
2013-04-03 01:55:00,26.8,20.6,30.31,NW,313,0.0,8.0,77,0.00,,,0.00,Wunderground v.1.15,2013-04-03 05:55:00,
2013-04-03 02:05:00,26.7,19.8,30.31,NW,313,0.0,8.0,75,0.00,,,0.00,Wunderground v.1.15,2013-04-03 06:05:00,
2013-04-03 02:10:00,26.7,19.8,30.31,NW,313,0.0,8.0,75,0.00,,,0.00,Wunderground v.1.15,2013-04-03 06:10:00,
2013-04-03 02:20:00,26.6,19.7,30.31,NW,313,0.0,8.0,75,0.00,,,0.00,Wunderground v.1.15,2013-04-03 06:20:00,
2013-04-03 02:25:00,26.5,19.0,30.31,NW,313,0.0,8.0,73,0.00,,,0.00,Wunderground v.1.15,2013-04-03 06:25:00,
2013-04-03 02:30:00,26.3,19.8,30.31,NW,313,0.0,8.0,76,0.00,,,0.00,Wunderground v.1.15,2013-04-03 06:30:00,
2013-04-03 02:35:00,26.2,20.0,30.31,NW,313,0.0,8.0,77,0.00,,,0.00,Wunderground v.1.15,2013-04-03 06:35:00,
2013-04-03 02:40:00,25.9,19.4,30.31,NW,313,0.0,8.0,76,0.00,,,0.00,Wunderground v.1.15,2013-04-03 06:40:00,
2013-04-03 02:50:00,25.4,19.8,30.31,NW,313,0.0,8.0,79,0.00,,,0.00,Wunderground v.1.15,2013-04-03 06:50:00,
2013-04-03 02:55:00,25.2,19.0,30.31,NW,313,0.0,8.0,77,0.00,,,0.00,Wunderground v.1.15,2013-04-03 06:55:00,
2013-04-03 03:00:00,25.2,19.3,30.31,NW,313,0.0,8.0,78,0.00,,,0.00,Wunderground v.1.15,2013-04-03 07:00:00,
2013-04-03 03:05:00,25.1,19.2,30.31,NW,313,0.0,8.0,78,0.00,,,0.00,Wunderground v.1.15,2013-04-03 07:05:00,
2013-04-03 03:10:00,25.0,20.0,30.31,NW,313,0.0,8.0,81,0.00,,,0.00,Wunderground v.1.15,2013-04-03 07:10:00,
2013-04-03 03:15:00,24.8,19.8,30.31,NW,313,0.0,8.0,81,0.00,,,0.00,Wunderground v.1.15,2013-04-03 07:15:00,
2013-04-03 03:20:00,24.9,19.9,30.31,NW,313,0.0,8.0,81,0.00,,,0.00,Wunderground v.1.15,2013-04-03 07:20:00,
2013-04-03 03:25:00,25.1,20.4,30.31,NW,313,1.0,8.0,82,0.00,,,0.00,Wunderground v.1.15,2013-04-03 07:25:00,
2013-04-03 03:30:00,25.3,20.6,30.31,NW,313,1.0,1.0,82,0.00,,,0.00,Wunderground v.1.15,2013-04-03 07:30:00,
2013-04-03 03:35:00,25.3,20.6,30.32,NW,313,0.0,8.0,82,0.00,,,0.00,Wunderground v.1.15,2013-04-03 07:35:00,
2013-04-03 03:40:00,25.3,20.9,30.32,NW,313,0.0,8.0,83,0.00,,,0.00,Wunderground v.1.15,2013-04-03 07:40:00,
2013-04-03 03:50:00,25.1,20.4,30.32,NW,313,0.0,8.0,82,0.00,,,0.00,Wunderground v.1.15,2013-04-03 07:50:00,
2013-04-03 04:00:00,24.9,20.8,30.32,NW,313,0.0,8.0,84,0.00,,,0.00,Wunderground v.1.15,2013-04-03 08:00:00,
2013-04-03 04:05:00,24.8,20.7,30.33,NW,313,0.0,8.0,84,0.00,,,0.00,Wunderground v.1.15,2013-04-03 08:05:00,
2013-04-03 04:10:00,24.7,20.6,30.32,NW,313,0.0,8.0,84,0.00,,,0.00,Wunderground v.1.15,2013-04-03 08:10:00,
2013-04-03 04:15:00,24.6,20.5,30.32,NW,313,0.0,8.0,84,0.00,,,0.00,Wunderground v.1.15,2013-04-03 08:15:00,
2013-04-03 04:20:00,24.5,20.1,30.32,NW,313,0.0,8.0,83,0.00,,,0.00,Wunderground v.1.15,2013-04-03 08:20:00,
2013-04-03 04:25:00,24.4,19.7,30.32,NW,313,0.0,8.0,82,0.00,,,0.00,Wunderground v.1.15,2013-04-03 08:25:00,
2013-04-03 04:35:00,24.1,19.7,30.32,NW,313,0.0,8.0,83,0.00,,,0.00,Wunderground v.1.15,2013-04-03 08:35:00,
2013-04-03 04:40:00,23.9,19.8,30.32,NW,313,0.0,8.0,84,0.00,,,0.00,Wunderground v.1.15,2013-04-03 08:40:00,
2013-04-03 04:50:00,23.8,19.7,30.32,NW,313,0.0,8.0,84,0.00,,,0.00,Wunderground v.1.15,2013-04-03 08:50:00,
2013-04-03 04:55:00,23.7,19.3,30.32,NW,313,0.0,8.0,83,0.00,,,0.00,Wunderground v.1.15,2013-04-03 08:55:00,
2013-04-03 05:00:00,23.7,19.3,30.33,NW,313,0.0,8.0,83,0.00,,,0.00,Wunderground v.1.15,2013-04-03 09:00:00,
2013-04-03 05:05:00,23.6,19.5,30.33,NW,313,0.0,8.0,84,0.00,,,0.00,Wunderground v.1.15,2013-04-03 09:05:00,
2013-04-03 05:15:00,23.7,19.9,30.33,NW,313,0.0,8.0,85,0.00,,,0.00,Wunderground v.1.15,2013-04-03 09:15:00,
2013-04-03 05:20:00,23.6,19.8,30.33,NW,313,0.0,8.0,85,0.00,,,0.00,Wunderground v.1.15,2013-04-03 09:20:00,
2013-04-03 05:25:00,23.4,19.6,30.33,NW,313,0.0,8.0,85,0.00,,,0.00,Wunderground v.1.15,2013-04-03 09:25:00,
2013-04-03 05:30:00,23.2,19.4,30.33,NW,313,0.0,8.0,85,0.00,,,0.00,Wunderground v.1.15,2013-04-03 09:30:00,
2013-04-03 05:35:00,23.0,18.9,30.33,NW,313,0.0,8.0,84,0.00,,,0.00,Wunderground v.1.15,2013-04-03 09:35:00,
2013-04-03 05:45:00,22.7,18.6,30.34,NW,313,0.0,8.0,84,0.00,,,0.00,Wunderground v.1.15,2013-04-03 09:45:00,
2013-04-03 05:55:00,22.7,19.1,30.35,NW,313,0.0,8.0,86,0.00,,,0.00,Wunderground v.1.15,2013-04-03 09:55:00,
2013-04-03 06:00:00,22.6,19.0,30.35,NW,313,0.0,0.0,86,0.00,,,0.00,Wunderground v.1.15,2013-04-03 10:00:00,
2013-04-03 06:10:00,22.8,19.2,30.34,NNW,338,1.0,1.0,86,0.00,,,0.00,Wunderground v.1.15,2013-04-03 10:10:00,
2013-04-03 06:20:00,23.8,19.4,30.34,NNW,346,0.0,1.0,83,0.00,,,0.00,Wunderground v.1.15,2013-04-03 10:20:00,
2013-04-03 06:25:00,24.1,19.4,30.34,NNW,348,1.0,1.0,82,0.00,,,0.00,Wunderground v.1.15,2013-04-03 10:25:00,
2013-04-03 06:30:00,24.3,19.6,30.35,NNW,348,1.0,1.0,82,0.00,,,0.00,Wunderground v.1.15,2013-04-03 10:30:00,
2013-04-03 06:35:00,24.5,19.2,30.35,NNW,348,1.0,1.0,80,0.00,,,0.00,Wunderground v.1.15,2013-04-03 10:35:00,
2013-04-03 06:40:00,24.6,19.3,30.34,NNW,348,1.0,1.0,80,0.00,,,0.00,Wunderground v.1.15,2013-04-03 10:40:00,
2013-04-03 06:45:00,24.5,19.2,30.34,NNW,348,1.0,1.0,80,0.00,,,0.00,Wunderground v.1.15,2013-04-03 10:45:00,
2013-04-03 06:50:00,24.4,19.1,30.35,NNW,348,0.0,1.0,80,0.00,,,0.00,Wunderground v.1.15,2013-04-03 10:50:00,
2013-04-03 06:55:00,24.3,18.7,30.34,NNW,348,1.0,1.0,79,0.00,,,0.00,Wunderground v.1.15,2013-04-03 10:55:00,
2013-04-03 07:00:00,24.3,18.7,30.35,NNW,348,1.0,1.0,79,0.00,,,0.00,Wunderground v.1.15,2013-04-03 11:00:00,
2013-04-03 07:05:00,24.3,18.7,30.35,NNW,348,1.0,1.0,79,0.00,,,0.00,Wunderground v.1.15,2013-04-03 11:05:00,
2013-04-03 07:15:00,24.3,19.0,30.35,NNW,348,1.0,1.0,80,0.00,,,0.00,Wunderground v.1.15,2013-04-03 11:15:00,
2013-04-03 07:25:00,23.8,18.8,30.35,NNW,348,0.0,1.0,81,0.00,,,0.00,Wunderground v.1.15,2013-04-03 11:25:00,
2013-04-03 07:30:00,23.4,18.7,30.36,NNW,348,1.0,1.0,82,0.00,,,0.00,Wunderground v.1.15,2013-04-03 11:30:00,
2013-04-03 07:35:00,23.2,18.5,30.36,NNW,348,1.0,1.0,82,0.00,,,0.00,Wunderground v.1.15,2013-04-03 11:35:00,
2013-04-03 07:40:00,23.2,18.5,30.36,NNW,348,1.0,1.0,82,0.00,,,0.00,Wunderground v.1.15,2013-04-03 11:40:00,
2013-04-03 07:45:00,23.4,19.0,30.37,NNW,348,1.0,1.0,83,0.00,,,0.00,Wunderground v.1.15,2013-04-03 11:45:00,
2013-04-03 07:50:00,23.4,19.3,30.37,NNW,348,1.0,1.0,84,0.00,,,0.00,Wunderground v.1.15,2013-04-03 11:50:00,
2013-04-03 08:00:00,23.4,18.7,30.38,NNW,348,0.0,0.0,82,0.00,,,0.00,Wunderground v.1.15,2013-04-03 12:00:00,
2013-04-03 08:05:00,23.4,19.0,30.38,NNW,348,0.0,0.0,83,0.00,,,0.00,Wunderground v.1.15,2013-04-03 12:05:00,
2013-04-03 08:10:00,23.5,19.4,30.38,NNW,348,0.0,0.0,84,0.00,,,0.00,Wunderground v.1.15,2013-04-03 12:10:00,
2013-04-03 08:15:00,23.6,19.5,30.39,NNW,348,0.0,0.0,84,0.00,,,0.00,Wunderground v.1.15,2013-04-03 12:15:00,
2013-04-03 08:20:00,23.8,19.9,30.39,NNW,348,0.0,0.0,85,0.00,,,0.00,Wunderground v.1.15,2013-04-03 12:20:00,
2013-04-03 08:30:00,24.2,19.5,30.40,NNW,348,0.0,0.0,82,0.00,,,0.00,Wunderground v.1.15,2013-04-03 12:30:00,
2013-04-03 08:35:00,24.6,19.9,30.40,NNW,348,0.0,0.0,82,0.00,,,0.00,Wunderground v.1.15,2013-04-03 12:35:00,
2013-04-03 08:40:00,25.3,20.9,30.41,NNW,348,0.0,0.0,83,0.00,,,0.00,Wunderground v.1.15,2013-04-03 12:40:00,
2013-04-03 08:45:00,26.0,22.1,30.41,NNW,348,0.0,0.0,85,0.00,,,0.00,Wunderground v.1.15,2013-04-03 12:45:00,
2013-04-03 08:50:00,26.5,22.0,30.42,NNW,348,0.0,0.0,83,0.00,,,0.00,Wunderground v.1.15,2013-04-03 12:50:00,
2013-04-03 08:55:00,27.1,22.3,30.42,NNW,348,0.0,0.0,82,0.00,,,0.00,Wunderground v.1.15,2013-04-03 12:55:00,
2013-04-03 09:00:00,27.8,21.8,30.42,NNW,348,0.0,0.0,78,0.00,,,0.00,Wunderground v.1.15,2013-04-03 13:00:00,
2013-04-03 09:10:00,29.2,22.6,30.42,NNW,348,0.0,0.0,76,0.00,,,0.00,Wunderground v.1.15,2013-04-03 13:10:00,
2013-04-03 09:15:00,30.1,22.2,30.43,NNW,348,0.0,0.0,72,0.00,,,0.00,Wunderground v.1.15,2013-04-03 13:15:00,
2013-04-03 09:20:00,31.0,23.0,30.43,NNW,348,0.0,0.0,72,0.00,,,0.00,Wunderground v.1.15,2013-04-03 13:20:00,
2013-04-03 09:25:00,32.1,23.4,30.43,NNW,348,0.0,0.0,70,0.00,,,0.00,Wunderground v.1.15,2013-04-03 13:25:00,
2013-04-03 09:30:00,33.3,23.2,30.43,ENE,69,0.0,1.0,66,0.00,,,0.00,Wunderground v.1.15,2013-04-03 13:30:00,
2013-04-03 09:35:00,34.2,23.3,30.44,ESE,114,1.0,1.0,64,0.00,,,0.00,Wunderground v.1.15,2013-04-03 13:35:00,
2013-04-03 09:40:00,34.9,22.8,30.44,ESE,114,1.0,1.0,61,0.00,,,0.00,Wunderground v.1.15,2013-04-03 13:40:00,
2013-04-03 09:45:00,35.5,22.6,30.44,ESE,113,1.0,2.0,59,0.00,,,0.00,Wunderground v.1.15,2013-04-03 13:45:00,
2013-04-03 09:50:00,36.0,21.8,30.44,ESE,111,2.0,2.0,56,0.00,,,0.00,Wunderground v.1.15,2013-04-03 13:50:00,
2013-04-03 09:55:00,36.5,21.8,30.44,ESE,111,1.0,2.0,55,0.00,,,0.00,Wunderground v.1.15,2013-04-03 13:55:00,
2013-04-03 10:00:00,37.3,22.6,30.44,ESE,110,1.0,1.0,55,0.00,,,0.00,Wunderground v.1.15,2013-04-03 14:00:00,
2013-04-03 10:05:00,38.0,22.8,30.44,ESE,110,1.0,1.0,54,0.00,,,0.00,Wunderground v.1.15,2013-04-03 14:05:00,
2013-04-03 10:10:00,38.3,22.6,30.44,ESE,110,1.0,1.0,53,0.00,,,0.00,Wunderground v.1.15,2013-04-03 14:10:00,
2013-04-03 10:15:00,38.9,22.3,30.44,ESE,110,1.0,1.0,51,0.00,,,0.00,Wunderground v.1.15,2013-04-03 14:15:00,
2013-04-03 10:25:00,39.4,21.3,30.44,ESE,110,1.0,1.0,48,0.00,,,0.00,Wunderground v.1.15,2013-04-03 14:25:00,
2013-04-03 10:30:00,39.6,20.5,30.44,East,87,2.0,5.0,46,0.00,,,0.00,Wunderground v.1.15,2013-04-03 14:30:00,
2013-04-03 10:35:00,39.9,19.7,30.44,ENE,77,2.0,5.0,44,0.00,,,0.00,Wunderground v.1.15,2013-04-03 14:35:00,
2013-04-03 10:40:00,39.9,19.2,30.44,SE,126,3.0,3.0,43,0.00,,,0.00,Wunderground v.1.15,2013-04-03 14:40:00,
2013-04-03 10:45:00,40.2,18.9,30.45,East,86,2.0,3.0,42,0.00,,,0.00,Wunderground v.1.15,2013-04-03 14:45:00,
2013-04-03 10:50:00,40.4,18.0,30.44,NNE,16,2.0,2.0,40,0.00,,,0.00,Wunderground v.1.15,2013-04-03 14:50:00,
2013-04-03 10:55:00,40.7,18.8,30.44,NNE,28,2.0,3.0,41,0.00,,,0.00,Wunderground v.1.15,2013-04-03 14:55:00,
2013-04-03 11:00:00,41.0,17.9,30.44,East,96,2.0,2.0,39,0.00,,,0.00,Wunderground v.1.15,2013-04-03 15:00:00,
2013-04-03 11:05:00,41.1,18.6,30.45,NNE,28,1.0,3.0,40,0.00,,,0.00,Wunderground v.1.15,2013-04-03 15:05:00,
2013-04-03 11:10:00,41.5,18.9,30.45,East,101,2.0,3.0,40,0.00,,,0.00,Wunderground v.1.15,2013-04-03 15:10:00,
2013-04-03 11:15:00,42.0,20.0,30.45,NE,53,2.0,3.0,41,0.00,,,0.00,Wunderground v.1.15,2013-04-03 15:15:00,
2013-04-03 11:20:00,42.2,18.4,30.44,ENE,76,2.0,4.0,38,0.00,,,0.00,Wunderground v.1.15,2013-04-03 15:20:00,
2013-04-03 11:25:00,41.8,20.9,30.44,NNE,31,2.0,4.0,43,0.00,,,0.00,Wunderground v.1.15,2013-04-03 15:25:00,
2013-04-03 11:35:00,40.9,17.8,30.43,NE,39,3.0,5.0,39,0.00,,,0.00,Wunderground v.1.15,2013-04-03 15:35:00,
2013-04-03 11:40:00,41.1,18.0,30.43,WSW,254,2.0,2.0,39,0.00,,,0.00,Wunderground v.1.15,2013-04-03 15:40:00,
2013-04-03 11:45:00,41.3,18.8,30.43,NNW,341,2.0,6.0,40,0.00,,,0.00,Wunderground v.1.15,2013-04-03 15:45:00,
2013-04-03 11:55:00,41.1,19.2,30.44,North,5,4.0,6.0,41,0.00,,,0.00,Wunderground v.1.15,2013-04-03 15:55:00,
2013-04-03 12:00:00,41.0,19.1,30.43,WNW,302,3.0,3.0,41,0.00,,,0.00,Wunderground v.1.15,2013-04-03 16:00:00,
2013-04-03 12:05:00,41.5,18.9,30.44,ENE,67,2.0,3.0,40,0.00,,,0.00,Wunderground v.1.15,2013-04-03 16:05:00,
2013-04-03 12:10:00,42.3,18.5,30.43,NW,321,2.0,4.0,38,0.00,,,0.00,Wunderground v.1.15,2013-04-03 16:10:00,
2013-04-03 12:20:00,42.3,20.2,30.43,NNW,340,3.0,8.0,41,0.00,,,0.00,Wunderground v.1.15,2013-04-03 16:20:00,
2013-04-03 12:25:00,41.7,17.3,30.43,North,5,5.0,8.0,37,0.00,,,0.00,Wunderground v.1.15,2013-04-03 16:25:00,
2013-04-03 12:30:00,42.1,18.3,30.43,NNW,342,3.0,3.0,38,0.00,,,0.00,Wunderground v.1.15,2013-04-03 16:30:00,
2013-04-03 12:35:00,42.9,20.2,30.43,ESE,102,2.0,3.0,40,0.00,,,0.00,Wunderground v.1.15,2013-04-03 16:35:00,
2013-04-03 12:40:00,43.3,18.7,30.42,North,5,2.0,2.0,37,0.00,,,0.00,Wunderground v.1.15,2013-04-03 16:40:00,
2013-04-03 12:45:00,42.8,18.9,30.43,North,360,4.0,4.0,38,0.00,,,0.00,Wunderground v.1.15,2013-04-03 16:45:00,
2013-04-03 12:50:00,42.6,19.9,30.42,WNW,296,4.0,5.0,40,0.00,,,0.00,Wunderground v.1.15,2013-04-03 16:50:00,
2013-04-03 13:00:00,43.6,19.0,30.42,ENE,63,3.0,3.0,37,0.00,,,0.00,Wunderground v.1.15,2013-04-03 17:00:00,
2013-04-03 13:05:00,43.8,19.8,30.42,NNW,346,3.0,4.0,38,0.00,,,0.00,Wunderground v.1.15,2013-04-03 17:05:00,
2013-04-03 13:10:00,43.2,18.6,30.42,NE,34,4.0,4.0,37,0.00,,,0.00,Wunderground v.1.15,2013-04-03 17:10:00,
2013-04-03 13:15:00,42.8,18.9,30.42,NNE,17,5.0,5.0,38,0.00,,,0.00,Wunderground v.1.15,2013-04-03 17:15:00,
2013-04-03 13:25:00,44.0,20.0,30.42,WNW,296,4.0,6.0,38,0.00,,,0.00,Wunderground v.1.15,2013-04-03 17:25:00,
2013-04-03 13:30:00,44.2,18.9,30.42,NE,50,4.0,4.0,36,0.00,,,0.00,Wunderground v.1.15,2013-04-03 17:30:00,
2013-04-03 13:40:00,45.2,18.5,30.42,NNW,346,4.0,4.0,34,0.00,,,0.00,Wunderground v.1.15,2013-04-03 17:40:00,
2013-04-03 13:45:00,45.2,18.5,30.41,ESE,117,3.0,7.0,34,0.00,,,0.00,Wunderground v.1.15,2013-04-03 17:45:00,
2013-04-03 13:55:00,45.3,19.9,30.41,ENE,67,3.0,4.0,36,0.00,,,0.00,Wunderground v.1.15,2013-04-03 17:55:00,
2013-04-03 14:00:00,45.5,18.7,30.41,NNW,340,4.0,4.0,34,0.00,,,0.00,Wunderground v.1.15,2013-04-03 18:00:00,
2013-04-03 14:05:00,45.2,18.5,30.40,ENE,59,4.0,4.0,34,0.00,,,0.00,Wunderground v.1.15,2013-04-03 18:05:00,
2013-04-03 14:10:00,45.1,19.0,30.39,NNW,338,3.0,7.0,35,0.00,,,0.00,Wunderground v.1.15,2013-04-03 18:10:00,
2013-04-03 14:20:00,45.2,19.1,30.39,NNE,18,5.0,5.0,35,0.00,,,0.00,Wunderground v.1.15,2013-04-03 18:20:00,
2013-04-03 14:25:00,45.4,19.3,30.39,NNW,333,6.0,7.0,35,0.00,,,0.00,Wunderground v.1.15,2013-04-03 18:25:00,
2013-04-03 14:30:00,45.0,19.0,30.39,NNW,338,6.0,6.0,35,0.00,,,0.00,Wunderground v.1.15,2013-04-03 18:30:00,
2013-04-03 14:35:00,45.5,21.3,30.39,East,91,6.0,13.0,38,0.00,,,0.00,Wunderground v.1.15,2013-04-03 18:35:00,
2013-04-03 14:40:00,46.3,19.4,30.38,East,91,5.0,5.0,34,0.00,,,0.00,Wunderground v.1.15,2013-04-03 18:40:00,
2013-04-03 14:45:00,46.2,20.0,30.38,North,350,3.0,7.0,35,0.00,,,0.00,Wunderground v.1.15,2013-04-03 18:45:00,
2013-04-03 14:55:00,46.2,21.3,30.38,NE,53,5.0,13.0,37,0.00,,,0.00,Wunderground v.1.15,2013-04-03 18:55:00,
2013-04-03 15:00:00,45.9,19.1,30.38,NNE,17,5.0,5.0,34,0.00,,,0.00,Wunderground v.1.15,2013-04-03 19:00:00,
2013-04-03 15:10:00,46.6,19.7,30.37,ENE,63,4.0,13.0,34,0.00,,,0.00,Wunderground v.1.15,2013-04-03 19:10:00,
2013-04-03 15:15:00,46.8,20.6,30.37,ESE,120,3.0,13.0,35,0.00,,,0.00,Wunderground v.1.15,2013-04-03 19:15:00,
2013-04-03 15:20:00,46.7,18.4,30.37,ESE,104,4.0,4.0,32,0.00,,,0.00,Wunderground v.1.15,2013-04-03 19:20:00,
2013-04-03 15:30:00,47.0,20.7,30.37,ENE,74,3.0,13.0,35,0.00,,,0.00,Wunderground v.1.15,2013-04-03 19:30:00,
2013-04-03 15:35:00,47.9,19.4,30.37,ESE,104,3.0,13.0,32,0.00,,,0.00,Wunderground v.1.15,2013-04-03 19:35:00,
2013-04-03 15:45:00,47.7,20.7,30.36,East,81,3.0,13.0,34,0.00,,,0.00,Wunderground v.1.15,2013-04-03 19:45:00,
2013-04-03 15:50:00,47.7,21.3,30.36,ENE,69,4.0,13.0,35,0.00,,,0.00,Wunderground v.1.15,2013-04-03 19:50:00,
2013-04-03 16:00:00,47.7,20.7,30.36,NNE,15,3.0,13.0,34,0.00,,,0.00,Wunderground v.1.15,2013-04-03 20:00:00,
2013-04-03 16:05:00,47.9,20.1,30.36,NE,55,4.0,13.0,33,0.00,,,0.00,Wunderground v.1.15,2013-04-03 20:05:00,
2013-04-03 16:10:00,47.8,20.1,30.36,East,88,4.0,4.0,33,0.00,,,0.00,Wunderground v.1.15,2013-04-03 20:10:00,
2013-04-03 16:20:00,48.1,21.0,30.36,North,355,4.0,13.0,34,0.00,,,0.00,Wunderground v.1.15,2013-04-03 20:20:00,
2013-04-03 16:25:00,48.1,22.4,30.36,ENE,70,3.0,13.0,36,0.00,,,0.00,Wunderground v.1.15,2013-04-03 20:25:00,
2013-04-03 16:30:00,48.3,19.8,30.36,ESE,111,3.0,3.0,32,0.00,,,0.00,Wunderground v.1.15,2013-04-03 20:30:00,
2013-04-03 16:40:00,48.1,20.3,30.36,ENE,69,3.0,3.0,33,0.00,,,0.00,Wunderground v.1.15,2013-04-03 20:40:00,
2013-04-03 16:50:00,48.9,20.3,30.36,East,83,2.0,2.0,32,0.00,,,0.00,Wunderground v.1.15,2013-04-03 20:50:00,
2013-04-03 16:55:00,48.8,20.9,30.36,ESE,120,2.0,13.0,33,0.00,,,0.00,Wunderground v.1.15,2013-04-03 20:55:00,
2013-04-03 17:00:00,48.8,19.5,30.36,East,80,3.0,3.0,31,0.00,,,0.00,Wunderground v.1.15,2013-04-03 21:00:00,
2013-04-03 17:05:00,48.5,19.2,30.36,SE,126,3.0,13.0,31,0.00,,,0.00,Wunderground v.1.15,2013-04-03 21:05:00,
2013-04-03 17:10:00,48.5,19.9,30.36,East,88,2.0,13.0,32,0.00,,,0.00,Wunderground v.1.15,2013-04-03 21:10:00,
2013-04-03 17:15:00,48.6,20.8,30.35,ESE,117,4.0,13.0,33,0.00,,,0.00,Wunderground v.1.15,2013-04-03 21:15:00,
2013-04-03 17:20:00,48.5,19.9,30.35,ESE,119,4.0,4.0,32,0.00,,,0.00,Wunderground v.1.15,2013-04-03 21:20:00,
2013-04-03 17:25:00,48.8,20.9,30.35,NNE,17,3.0,13.0,33,0.00,,,0.00,Wunderground v.1.15,2013-04-03 21:25:00,
2013-04-03 17:35:00,48.6,20.8,30.35,ESE,113,3.0,13.0,33,0.00,,,0.00,Wunderground v.1.15,2013-04-03 21:35:00,
2013-04-03 17:40:00,48.2,20.4,30.35,ESE,117,2.0,13.0,33,0.00,,,0.00,Wunderground v.1.15,2013-04-03 21:40:00,
2013-04-03 17:50:00,48.1,21.0,30.35,ESE,109,3.0,13.0,34,0.00,,,0.00,Wunderground v.1.15,2013-04-03 21:50:00,
2013-04-03 17:55:00,47.7,20.7,30.35,ESE,118,4.0,13.0,34,0.00,,,0.00,Wunderground v.1.15,2013-04-03 21:55:00,
2013-04-03 18:00:00,47.9,20.8,30.35,ESE,122,3.0,3.0,34,0.00,,,0.00,Wunderground v.1.15,2013-04-03 22:00:00,
2013-04-03 18:05:00,47.7,20.7,30.35,South,180,3.0,13.0,34,0.00,,,0.00,Wunderground v.1.15,2013-04-03 22:05:00,
2013-04-03 18:10:00,47.6,21.9,30.34,ESE,107,2.0,2.0,36,0.00,,,0.00,Wunderground v.1.15,2013-04-03 22:10:00,
2013-04-03 18:15:00,47.9,23.5,30.34,East,97,2.0,5.0,38,0.00,,,0.00,Wunderground v.1.15,2013-04-03 22:15:00,
2013-04-03 18:20:00,48.0,21.6,30.34,ESE,121,2.0,2.0,35,0.00,,,0.00,Wunderground v.1.15,2013-04-03 22:20:00,
2013-04-03 18:25:00,48.1,22.4,30.34,East,96,2.0,13.0,36,0.00,,,0.00,Wunderground v.1.15,2013-04-03 22:25:00,
2013-04-03 18:30:00,48.3,22.5,30.34,East,98,2.0,2.0,36,0.00,,,0.00,Wunderground v.1.15,2013-04-03 22:30:00,
2013-04-03 18:35:00,48.4,22.6,30.34,SE,136,2.0,13.0,36,0.00,,,0.00,Wunderground v.1.15,2013-04-03 22:35:00,
2013-04-03 18:40:00,48.2,22.5,30.34,ESE,114,3.0,13.0,36,0.00,,,0.00,Wunderground v.1.15,2013-04-03 22:40:00,
2013-04-03 18:45:00,47.9,22.8,30.34,SE,132,3.0,13.0,37,0.00,,,0.00,Wunderground v.1.15,2013-04-03 22:45:00,
2013-04-03 18:55:00,47.6,21.9,30.34,ESE,123,4.0,13.0,36,0.00,,,0.00,Wunderground v.1.15,2013-04-03 22:55:00,
2013-04-03 19:00:00,47.6,21.9,30.34,ESE,111,3.0,13.0,36,0.00,,,0.00,Wunderground v.1.15,2013-04-03 23:00:00,
2013-04-03 19:05:00,47.6,22.6,30.34,ENE,70,2.0,13.0,37,0.00,,,0.00,Wunderground v.1.15,2013-04-03 23:05:00,
2013-04-03 19:10:00,47.3,22.3,30.34,ESE,105,3.0,3.0,37,0.00,,,0.00,Wunderground v.1.15,2013-04-03 23:10:00,
2013-04-03 19:20:00,47.0,22.0,30.34,East,95,4.0,4.0,37,0.00,,,0.00,Wunderground v.1.15,2013-04-03 23:20:00,
2013-04-03 19:25:00,46.8,23.1,30.34,SE,130,4.0,13.0,39,0.00,,,0.00,Wunderground v.1.15,2013-04-03 23:25:00,
2013-04-03 19:30:00,46.5,22.2,30.34,ESE,106,3.0,3.0,38,0.00,,,0.00,Wunderground v.1.15,2013-04-03 23:30:00,
2013-04-03 19:35:00,46.2,22.6,30.33,East,83,2.0,13.0,39,0.00,,,0.00,Wunderground v.1.15,2013-04-03 23:35:00,
2013-04-03 19:40:00,45.8,22.8,30.33,East,94,2.0,2.0,40,0.00,,,0.00,Wunderground v.1.15,2013-04-03 23:40:00,
2013-04-03 19:50:00,45.2,23.4,30.33,East,95,1.0,13.0,42,0.00,,,0.00,Wunderground v.1.15,2013-04-03 23:50:00,
2013-04-03 19:55:00,44.9,23.2,30.33,ESE,111,1.0,13.0,42,0.00,,,0.00,Wunderground v.1.15,2013-04-03 23:55:00,
2013-04-03 20:00:00,44.5,22.8,30.33,ESE,108,1.0,13.0,42,0.00,,,0.00,Wunderground v.1.15,2013-04-04 00:00:00,
2013-04-03 20:05:00,44.3,23.7,30.33,ESE,108,1.0,13.0,44,0.00,,,0.00,Wunderground v.1.15,2013-04-04 00:05:00,
2013-04-03 20:10:00,44.0,23.5,30.33,ESE,103,0.0,13.0,44,0.00,,,0.00,Wunderground v.1.15,2013-04-04 00:10:00,
2013-04-03 20:15:00,43.6,24.7,30.33,ESE,103,0.0,13.0,47,0.00,,,0.00,Wunderground v.1.15,2013-04-04 00:15:00,
2013-04-03 20:20:00,43.2,23.3,30.33,ESE,103,0.0,13.0,45,0.00,,,0.00,Wunderground v.1.15,2013-04-04 00:20:00,
2013-04-03 20:30:00,42.2,22.4,30.33,ESE,103,0.0,13.0,45,0.00,,,0.00,Wunderground v.1.15,2013-04-04 00:30:00,
2013-04-03 20:40:00,41.5,22.7,30.33,ESE,103,0.0,13.0,47,0.00,,,0.00,Wunderground v.1.15,2013-04-04 00:40:00,
2013-04-03 20:45:00,41.0,22.3,30.33,ESE,103,0.0,13.0,47,0.00,,,0.00,Wunderground v.1.15,2013-04-04 00:45:00,
2013-04-03 20:50:00,40.7,22.5,30.32,ESE,103,0.0,13.0,48,0.00,,,0.00,Wunderground v.1.15,2013-04-04 00:50:00,
2013-04-03 20:55:00,40.2,22.1,30.32,ESE,103,0.0,13.0,48,0.00,,,0.00,Wunderground v.1.15,2013-04-04 00:55:00,
2013-04-03 21:05:00,39.6,22.5,30.32,ESE,103,0.0,13.0,50,0.00,,,0.00,Wunderground v.1.15,2013-04-04 01:05:00,
2013-04-03 21:15:00,39.0,21.9,30.32,ESE,103,0.0,13.0,50,0.00,,,0.00,Wunderground v.1.15,2013-04-04 01:15:00,
2013-04-03 21:20:00,38.7,21.6,30.32,ESE,103,0.0,13.0,50,0.00,,,0.00,Wunderground v.1.15,2013-04-04 01:20:00,
2013-04-03 21:25:00,38.4,21.8,30.32,ESE,103,0.0,13.0,51,0.00,,,0.00,Wunderground v.1.15,2013-04-04 01:25:00,
2013-04-03 21:30:00,38.2,21.6,30.32,ESE,103,0.0,13.0,51,0.00,,,0.00,Wunderground v.1.15,2013-04-04 01:30:00,
2013-04-03 21:40:00,38.0,21.9,30.32,ESE,103,0.0,13.0,52,0.00,,,0.00,Wunderground v.1.15,2013-04-04 01:40:00,
2013-04-03 21:45:00,37.8,21.7,30.32,ESE,103,0.0,13.0,52,0.00,,,0.00,Wunderground v.1.15,2013-04-04 01:45:00,
2013-04-03 21:50:00,37.5,22.3,30.32,ESE,103,0.0,13.0,54,0.00,,,0.00,Wunderground v.1.15,2013-04-04 01:50:00,
2013-04-03 21:55:00,37.1,21.5,30.32,ESE,103,0.0,13.0,53,0.00,,,0.00,Wunderground v.1.15,2013-04-04 01:55:00,
2013-04-03 22:00:00,36.8,21.7,30.32,ESE,103,0.0,13.0,54,0.00,,,0.00,Wunderground v.1.15,2013-04-04 02:00:00,
2013-04-03 22:05:00,36.4,21.8,30.32,ESE,103,0.0,13.0,55,0.00,,,0.00,Wunderground v.1.15,2013-04-04 02:05:00,
2013-04-03 22:15:00,35.8,23.3,30.32,ESE,103,0.0,13.0,60,0.00,,,0.00,Wunderground v.1.15,2013-04-04 02:15:00,
2013-04-03 22:20:00,35.5,23.0,30.32,ESE,103,0.0,13.0,60,0.00,,,0.00,Wunderground v.1.15,2013-04-04 02:20:00,
2013-04-03 22:25:00,35.1,23.4,30.32,ESE,103,0.0,13.0,62,0.00,,,0.00,Wunderground v.1.15,2013-04-04 02:25:00,
2013-04-03 22:30:00,34.8,25.3,30.32,ESE,103,0.0,13.0,68,0.00,,,0.00,Wunderground v.1.15,2013-04-04 02:30:00,
2013-04-03 22:35:00,34.4,23.8,30.33,ESE,103,0.0,13.0,65,0.00,,,0.00,Wunderground v.1.15,2013-04-04 02:35:00,
2013-04-03 22:45:00,33.8,22.5,30.33,ESE,103,0.0,13.0,63,0.00,,,0.00,Wunderground v.1.15,2013-04-04 02:45:00,
2013-04-03 22:50:00,33.7,23.2,30.33,ESE,103,0.0,13.0,65,0.00,,,0.00,Wunderground v.1.15,2013-04-04 02:50:00,
2013-04-03 22:55:00,33.6,23.4,30.33,ESE,103,0.0,13.0,66,0.00,,,0.00,Wunderground v.1.15,2013-04-04 02:55:00,
2013-04-03 23:00:00,33.5,23.0,30.33,ESE,103,0.0,13.0,65,0.00,,,0.00,Wunderground v.1.15,2013-04-04 03:00:00,
2013-04-03 23:05:00,33.3,23.5,30.32,ESE,103,0.0,13.0,67,0.00,,,0.00,Wunderground v.1.15,2013-04-04 03:05:00,
2013-04-03 23:10:00,33.1,24.0,30.33,ESE,103,0.0,13.0,69,0.00,,,0.00,Wunderground v.1.15,2013-04-04 03:10:00,
2013-04-03 23:15:00,32.8,23.7,30.33,ESE,103,0.0,13.0,69,0.00,,,0.00,Wunderground v.1.15,2013-04-04 03:15:00,
2013-04-03 23:25:00,32.4,24.0,30.33,ESE,103,0.0,13.0,71,0.00,,,0.00,Wunderground v.1.15,2013-04-04 03:25:00,
2013-04-03 23:30:00,32.1,23.8,30.33,ESE,103,0.0,13.0,71,0.00,,,0.00,Wunderground v.1.15,2013-04-04 03:30:00,
2013-04-03 23:35:00,31.9,23.6,30.33,ESE,103,0.0,13.0,71,0.00,,,0.00,Wunderground v.1.15,2013-04-04 03:35:00,
2013-04-03 23:40:00,31.7,23.7,30.33,ESE,103,0.0,13.0,72,0.00,,,0.00,Wunderground v.1.15,2013-04-04 03:40:00,
2013-04-03 23:45:00,31.7,23.7,30.33,ESE,103,0.0,13.0,72,0.00,,,0.00,Wunderground v.1.15,2013-04-04 03:45:00,
2013-04-03 23:50:00,31.7,24.0,30.33,ESE,103,0.0,13.0,73,0.00,,,0.00,Wunderground v.1.15,2013-04-04 03:50:00,
2013-04-03 23:55:00,31.5,23.8,30.33,ESE,103,0.0,13.0,73,0.00,,,0.00,Wunderground v.1.15,2013-04-04 03:55:00,